This is the latest recevied weather packets stored in our database for station/object KC4JES. If no packets are shown the sender has not sent any weather packets the latest 10 day(s).
| Time | Temp. | Humidity | Pressure | Rain* | Wind** | Luminosity | Snow |
|---|---|---|---|---|---|---|---|
| 1777582900 | 28.89° C | 67% | 1009 hPa | 0 mm | - | 524 W/m² | - |
| 1777582598 | 28.89° C | 67% | 1009.2 hPa | 0 mm | - | 568 W/m² | - |
| 1777582293 | 28.89° C | 68% | 1009.4 hPa | 0 mm | - | 374 W/m² | - |
| 1777581991 | 28.89° C | 68% | 1009.2 hPa | 0 mm | - | 576 W/m² | - |
| 1777581686 | 27.78° C | 72% | 1009.3 hPa | 0 mm | - | 664 W/m² | - |
| 1777581381 | 27.78° C | 71% | 1009.3 hPa | 0 mm | - | 156 W/m² | - |
| 1777581075 | 27.78° C | 71% | 1009.4 hPa | 0 mm | - | 574 W/m² | - |
| 1777580774 | 26.67° C | 75% | 1009.5 hPa | 0 mm | - | 684 W/m² | - |
| 1777580471 | 26.67° C | 74% | 1009.3 hPa | 0 mm | - | 114 W/m² | - |
| 1777580171 | 26.67° C | 73% | 1009.6 hPa | 0 mm | - | 109 W/m² | - |
| 1777579869 | 26.67° C | 74% | 1009.4 hPa | 0 mm | - | 172 W/m² | - |
| 1777579569 | 26.67° C | 74% | 1009.6 hPa | 0 mm | - | 142 W/m² | - |
| 1777579268 | 26.67° C | 75% | 1009.7 hPa | 0 mm | - | 135 W/m² | - |
| 1777578963 | 26.67° C | 74% | 1009.9 hPa | 0 mm | - | 113 W/m² | - |
| 1777578659 | 26.67° C | 73% | 1009.8 hPa | 0 mm | - | 85 W/m² | - |
| 1777578357 | 26.67° C | 74% | 1009.9 hPa | 0 mm | - | 109 W/m² | - |
| 1777578054 | 27.22° C | 72% | 1009.8 hPa | 0 mm | - | 100 W/m² | - |
| 1777577749 | 27.78° C | 72% | 1009.8 hPa | 0 mm | - | 148 W/m² | - |
| 1777577446 | 27.78° C | 72% | 1009.6 hPa | 0 mm | - | 177 W/m² | - |
| 1777577144 | 27.78° C | 71% | 1009.9 hPa | 0 mm | - | 751 W/m² | - |
| 1777576840 | 27.78° C | 73% | 1009.7 hPa | 0 mm | - | 334 W/m² | - |
| 1777576539 | 27.78° C | 72% | 1010 hPa | 0 mm | - | 281 W/m² | - |
| 1777576235 | 28.33° C | 71% | 1010.1 hPa | 0 mm | - | 185 W/m² | - |
| 1777575931 | 28.89° C | 70% | 1010.2 hPa | 0 mm | - | 328 W/m² | - |
| 1777575627 | 28.89° C | 72% | 1010.3 hPa | 0 mm | - | 690 W/m² | - |
* Rain latest hour (hover to see other rain measurements)
** Current wind speed in m/s (hover to see current wind gust speed)